STARLINK-4090 (53165 NORAD) Tracking and Keplerian Element Data

This shows tracking and keplerian element data for the satellite.

Feedback or suggestion? Click here.




ElementValue
Catalog53165
NameSTARLINK-4090
Epoch Orbit1185
Epoch Day270.25001157
Epoch Year2022
RAAN58.1217
Inclination53.2173
Eccentricity0.0001494
Argument of Perigee60.1484
Mean Anonmoly108.3512
Mean Motion15.20889887
Decay Rate-0.01061491
L11 53165U 22083AK 22270.25001157 -.01061491 00000+0 -51794-1 0 9999
L22 53165 53.2173 58.1217 0001494 60.1484 108.3512 15.20889887 11859

Live tracking and technical data element details for STARLINK-4090 (NORAD 53165). STARLINK-4090 can be tracked NOW for your location showing map with azimuth and elevation plus other details from your city location.

Track the satellite on the map from your city or location and see movement details for azimuth, elevation, latitude, longitude, range, height, and movement on the map or in text.







IsCatalogInMostPopularTable: catalog: 53165, numindb: 2
Update: records affected: 1



GetName: 53165 STARLINK-4090

Hit Count: updated at: Fri, 30 Sep 2022 03:32:41 GMT